Mankato, MN

12:40 PM CST on November 13, 2019 (GMT -0600)
Mankato Regional

Weather History for KMKT - September, 2019

Change the Weather History Date:

Wednesday, September 25, 2019

  Actual Average Record
Temperature  
Mean Temperature 60 °F -  
Max Temperature 68 °F 65 °F 84 °F (1999)
Min Temperature 50 °F 45 °F 33 °F (2000)
Degree Days  
Heating Degree Days 5    
Growing Degree Days 10 (Base 50)    
Moisture  
Dew Point 49 °F    
Average Humidity 68    
Maximum Humidity 93    
Minimum Humidity 40    
Precipitation  
Precipitation 0.00 in - - ()
Sea Level Pressure  
Sea Level Pressure 29.80 in    
Wind  
Wind Speed 10 mph ()    
Max Wind Speed 17 mph    
Max Gust Speed 25 mph    
Visibility 9.9 miles    
Events      
Averages and records for this station are not official NWS values.
T = Trace of Precipitation, MM = Missing Value Source: Averaged Metar Reports

Daily Weather History Graph

Daily Weather History Graph

Search for Another Location

Airport or City:

Astronomy

Sep. 25, 2019 Rise Set
Actual Time 7:06 AM CDT 7:07 PM CDT
Civil Twilight 6:37 AM CDT 7:36 PM CDT
Nautical Twilight 6:03 AM CDT 8:10 PM CDT
Astronomical Twilight 5:28 AM CDT 8:44 PM CDT
Moon 2:48 AM CDT (9/25) 5:50 PM CDT (9/25)
Length of Visible Light 12h 59m
Length of Day
12h 01m
Waning Crescent, 14% of the Moon is Illuminated
Sep 25
Waning Crescent
Sep 28
New
Oct 5
First Quarter
Oct 13
Full
Oct 21
Last Quarter

Hourly Weather History & Observations

Time (CDT) Temp. Dew Point Humidity Pressure Visibility Wind Dir Wind Speed Gust Speed Precip Events Conditions
12:56 AM 62.1 °F 60.1 °F 93% 29.64 in 10.0 mi West 9.2 mph - N/A   Clear
1:56 AM 61.0 °F 59.0 °F 93% 29.65 in 10.0 mi West 10.4 mph - N/A   Clear
2:56 AM 61.0 °F 57.9 °F 90% 29.66 in 10.0 mi West 11.5 mph - N/A   Clear
3:56 AM 60.1 °F 57.0 °F 90% 29.65 in 10.0 mi West 9.2 mph - N/A   Clear
4:56 AM 60.1 °F 55.0 °F 83% 29.68 in 10.0 mi West 10.4 mph - N/A   Clear
5:56 AM 59.0 °F 53.1 °F 81% 29.71 in 10.0 mi WNW 11.5 mph - N/A   Clear
6:56 AM 55.9 °F 52.0 °F 87% 29.74 in 10.0 mi WNW 13.8 mph - N/A   Clear
7:56 AM 55.9 °F 52.0 °F 87% 29.77 in 10.0 mi WNW 10.4 mph - N/A   Clear
8:56 AM 57.9 °F 52.0 °F 81% 29.79 in 10.0 mi WNW 12.7 mph - N/A   Clear
9:56 AM 60.1 °F 52.0 °F 75% 29.81 in 10.0 mi West 10.4 mph - N/A   Clear
10:56 AM 63.0 °F 53.1 °F 70% 29.82 in 10.0 mi WNW 12.7 mph - N/A   Clear
11:56 AM 66.0 °F 48.9 °F 54% 29.82 in 10.0 mi WNW 12.7 mph 20.7 mph N/A   Clear
12:56 PM 68.0 °F 44.1 °F 42% 29.82 in 10.0 mi WNW 17.3 mph 25.3 mph N/A   Partly Cloudy
1:56 PM 66.0 °F 44.1 °F 45% 29.81 in 10.0 mi West 16.1 mph 21.9 mph N/A   Partly Cloudy
2:56 PM 66.0 °F 45.0 °F 47% 29.81 in 8.0 mi West 15.0 mph 19.6 mph N/A   Clear
3:56 PM 64.0 °F 42.1 °F 45% 29.82 in 10.0 mi West 17.3 mph 21.9 mph N/A   Clear
4:56 PM 64.9 °F 44.1 °F 47% 29.81 in 10.0 mi West 12.7 mph - N/A   Clear
5:56 PM 64.0 °F 39.0 °F 40% 29.83 in 10.0 mi WNW 15.0 mph - N/A   Partly Cloudy
6:56 PM 62.1 °F 41.0 °F 46% 29.85 in 10.0 mi WNW 12.7 mph 18.4 mph N/A   Clear
7:56 PM 57.9 °F 43.0 °F 58% 29.88 in 10.0 mi West 9.2 mph - N/A   Clear
8:56 PM 55.0 °F 42.1 °F 62% 29.91 in 10.0 mi West 8.1 mph - N/A   Clear
9:56 PM 53.1 °F 43.0 °F 69% 29.93 in 10.0 mi West 6.9 mph - N/A   Clear
10:56 PM 52.0 °F 43.0 °F 71% 29.94 in 10.0 mi West 8.1 mph - N/A   Clear
11:56 PM 50.0 °F 44.1 °F 80% 29.94 in 10.0 mi West 10.4 mph - N/A   Clear